Location: Unnamed
(42.1164°N, 2.7652°E)
Time: 21:18:20
(UTC+02:00)

ISS - Pass Details

Date: 11 May 2021
Orbit: 417 x 422 km, 51.6° (Epoch: 14 June)

Event Time Altitude Azimuth Distance (km) Brightness Sun altitude
Rises 05:10:31 0° 307° (NW) 2,375 -0.1 -13.6°
Reaches altitude 10° 05:12:50 10° 321° (NW) 1,509 -0.9 -13.3°
Maximum altitude 05:15:46 26° 20° (NNE) 867 -1.5 -12.8°
Drops below altitude 10° 05:18:41 10° 80° (E) 1,507 0.1 -12.4°
Sets 05:21:00 0° 93° (E) 2,370 0.9 -12.1°
